TimeCDT,TemperatureF,Dew PointF,Humidity,Sea Level PressureIn,VisibilityMPH,Wind Direction,Wind SpeedMPH,Gust SpeedMPH,PrecipitationIn,Events,Conditions,WindDirDegrees,DateUTC
12:15 AM,55.4,55.4,100,29.80,10.0,SSW,6.9,-,N/A,,Clear,200,2013-05-22 05:15:00
12:35 AM,55.4,55.4,100,29.81,10.0,SSW,6.9,-,N/A,,Clear,210,2013-05-22 05:35:00
12:55 AM,55.4,55.4,100,29.81,10.0,SW,8.1,-,N/A,,Clear,230,2013-05-22 05:55:00
1:15 AM,55.4,55.4,100,29.80,10.0,WSW,8.1,-,N/A,,Clear,240,2013-05-22 06:15:00
1:35 AM,55.4,55.4,100,29.80,10.0,SW,6.9,-,N/A,,Clear,230,2013-05-22 06:35:00
1:55 AM,55.4,55.4,100,29.80,10.0,WSW,5.8,-,N/A,,Clear,250,2013-05-22 06:55:00
2:15 AM,53.6,53.6,100,29.80,10.0,West,6.9,-,N/A,,Clear,260,2013-05-22 07:15:00
2:35 AM,53.6,53.6,100,29.81,10.0,NW,9.2,-,N/A,,Clear,320,2013-05-22 07:35:00
2:55 AM,53.6,53.6,100,29.81,10.0,NNW,4.6,-,N/A,,Clear,340,2013-05-22 07:55:00
3:15 AM,53.6,53.6,100,29.81,10.0,Calm,Calm,-,N/A,,Clear,0,2013-05-22 08:15:00
3:35 AM,51.8,51.8,100,29.81,10.0,NW,4.6,-,N/A,,Clear,310,2013-05-22 08:35:00
3:55 AM,51.8,51.8,100,29.82,10.0,NW,3.5,-,N/A,,Clear,320,2013-05-22 08:55:00
4:15 AM,51.8,51.8,100,29.82,10.0,North,5.8,-,N/A,,Partly Cloudy,350,2013-05-22 09:15:00
4:35 AM,51.8,51.8,100,29.82,10.0,NNW,8.1,-,N/A,,Partly Cloudy,340,2013-05-22 09:35:00
4:55 AM,50.0,50.0,100,29.83,10.0,NNW,8.1,-,N/A,,Clear,330,2013-05-22 09:55:00
5:15 AM,50.0,50.0,100,29.84,10.0,NNW,8.1,-,N/A,,Partly Cloudy,330,2013-05-22 10:15:00
5:35 AM,50.0,50.0,100,29.83,10.0,NNW,6.9,-,N/A,,Clear,340,2013-05-22 10:35:00
5:55 AM,50.0,50.0,100,29.85,10.0,Calm,Calm,-,N/A,,Clear,0,2013-05-22 10:55:00
6:15 AM,48.2,48.2,100,29.85,10.0,NNW,8.1,-,N/A,,Clear,330,2013-05-22 11:15:00
6:35 AM,48.2,48.2,100,29.86,10.0,NNW,5.8,-,N/A,,Clear,330,2013-05-22 11:35:00
6:55 AM,50.0,50.0,100,29.86,10.0,NNW,6.9,-,N/A,,Clear,330,2013-05-22 11:55:00
7:15 AM,51.8,51.8,100,29.88,10.0,WNW,3.5,-,N/A,,Clear,300,2013-05-22 12:15:00
7:35 AM,53.6,53.6,100,29.89,10.0,NNW,6.9,-,N/A,,Clear,330,2013-05-22 12:35:00
7:55 AM,55.4,55.4,100,29.89,10.0,NNW,8.1,-,N/A,,Clear,340,2013-05-22 12:55:00
8:15 AM,57.2,57.2,100,29.90,10.0,NNW,9.2,-,N/A,,Clear,330,2013-05-22 13:15:00
8:35 AM,57.2,57.2,100,29.91,10.0,NNW,6.9,-,N/A,,Clear,340,2013-05-22 13:35:00
8:55 AM,59.0,59.0,100,29.91,10.0,NW,11.5,-,N/A,,Clear,320,2013-05-22 13:55:00
9:15 AM,59.0,59.0,100,29.92,10.0,NNW,11.5,-,N/A,,Clear,330,2013-05-22 14:15:00
9:35 AM,62.6,62.6,100,29.92,10.0,NNW,9.2,-,N/A,,Clear,340,2013-05-22 14:35:00
9:55 AM,62.6,62.6,100,29.92,10.0,NW,6.9,-,N/A,,Clear,320,2013-05-22 14:55:00
10:15 AM,62.6,62.6,100,29.93,10.0,NW,6.9,-,N/A,,Clear,320,2013-05-22 15:15:00
10:35 AM,64.4,64.4,100,29.93,10.0,West,10.4,-,N/A,,Clear,280,2013-05-22 15:35:00
10:55 AM,66.2,66.2,100,29.93,10.0,NW,9.2,-,N/A,,Clear,310,2013-05-22 15:55:00
11:15 AM,66.2,66.2,100,29.93,10.0,NW,10.4,-,N/A,,Clear,310,2013-05-22 16:15:00
11:35 AM,66.2,66.2,100,29.93,10.0,NW,9.2,18.4,N/A,,Clear,310,2013-05-22 16:35:00
11:55 AM,68.0,68.0,100,29.92,10.0,WNW,11.5,16.1,N/A,,Clear,300,2013-05-22 16:55:00
12:15 PM,68.0,68.0,100,29.92,10.0,NW,11.5,18.4,N/A,,Clear,320,2013-05-22 17:15:00
12:35 PM,69.8,69.8,100,29.92,10.0,WNW,11.5,-,N/A,,Clear,300,2013-05-22 17:35:00
12:55 PM,71.6,71.6,100,29.92,10.0,WNW,11.5,-,N/A,,Clear,290,2013-05-22 17:55:00
1:15 PM,71.6,71.6,100,29.92,10.0,WNW,10.4,-,N/A,,Clear,300,2013-05-22 18:15:00
1:35 PM,71.6,71.6,100,29.91,10.0,WNW,9.2,-,N/A,,Clear,290,2013-05-22 18:35:00
1:55 PM,73.4,73.4,100,29.91,10.0,West,11.5,-,N/A,,Clear,280,2013-05-22 18:55:00
2:15 PM,73.4,73.4,100,29.90,10.0,WNW,8.1,16.1,N/A,,Clear,300,2013-05-22 19:15:00
2:35 PM,73.4,73.4,100,29.89,10.0,West,9.2,-,N/A,,Clear,280,2013-05-22 19:35:00
2:55 PM,75.2,75.2,100,29.89,10.0,WNW,6.9,-,N/A,,Clear,300,2013-05-22 19:55:00
3:15 PM,75.2,75.2,100,29.88,10.0,West,8.1,-,N/A,,Clear,260,2013-05-22 20:15:00
3:35 PM,75.2,75.2,100,29.88,10.0,WSW,5.8,-,N/A,,Clear,240,2013-05-22 20:35:00
3:55 PM,75.2,75.2,100,29.87,10.0,NW,6.9,-,N/A,,Clear,310,2013-05-22 20:55:00
4:15 PM,77.0,77.0,100,29.87,10.0,North,3.5,-,N/A,,Clear,360,2013-05-22 21:15:00
4:35 PM,77.0,77.0,100,29.86,10.0,Calm,Calm,-,N/A,,Clear,0,2013-05-22 21:35:00
4:55 PM,77.0,77.0,100,29.86,10.0,West,5.8,-,N/A,,Clear,280,2013-05-22 21:55:00
5:15 PM,77.0,77.0,100,29.86,10.0,NW,3.5,-,N/A,,Clear,310,2013-05-22 22:15:00
5:35 PM,77.0,77.0,100,29.86,10.0,SSE,5.8,-,N/A,,Clear,160,2013-05-22 22:35:00
5:55 PM,78.8,78.8,100,29.86,10.0,Calm,Calm,-,N/A,,Clear,0,2013-05-22 22:55:00
6:15 PM,77.0,77.0,100,29.86,10.0,Calm,Calm,-,N/A,,Clear,0,2013-05-22 23:15:00
6:35 PM,77.0,77.0,100,29.87,10.0,West,3.5,-,N/A,,Clear,280,2013-05-22 23:35:00
6:55 PM,77.0,77.0,100,29.87,10.0,SW,4.6,-,N/A,,Clear,230,2013-05-22 23:55:00
7:15 PM,75.2,75.2,100,29.87,10.0,South,6.9,-,N/A,,Clear,180,2013-05-23 00:15:00
7:35 PM,73.4,73.4,100,29.87,10.0,South,5.8,-,N/A,,Clear,180,2013-05-23 00:35:00
7:55 PM,71.6,71.6,100,29.87,10.0,South,6.9,-,N/A,,Clear,180,2013-05-23 00:55:00
8:15 PM,69.8,69.8,100,29.88,10.0,South,5.8,-,N/A,,Clear,170,2013-05-23 01:15:00
8:35 PM,69.8,69.8,100,29.88,10.0,SSE,5.8,-,N/A,,Clear,160,2013-05-23 01:35:00
8:55 PM,66.2,66.2,100,29.88,10.0,ESE,3.5,-,N/A,,Clear,120,2013-05-23 01:55:00
9:15 PM,66.2,66.2,100,29.89,10.0,East,4.6,-,N/A,,Clear,100,2013-05-23 02:15:00
9:35 PM,66.2,66.2,100,29.89,10.0,East,3.5,-,N/A,,Clear,100,2013-05-23 02:35:00
9:55 PM,62.6,62.6,100,29.90,10.0,East,5.8,-,N/A,,Clear,80,2013-05-23 02:55:00
10:15 PM,62.6,62.6,100,29.91,10.0,ENE,5.8,-,N/A,,Clear,70,2013-05-23 03:15:00
10:35 PM,62.6,62.6,100,29.91,10.0,ESE,4.6,-,N/A,,Clear,110,2013-05-23 03:35:00
10:55 PM,62.6,62.6,100,29.92,10.0,ESE,5.8,-,N/A,,Clear,120,2013-05-23 03:55:00
11:15 PM,62.6,62.6,100,29.92,10.0,ENE,3.5,-,N/A,,Clear,70,2013-05-23 04:15:00
11:35 PM,60.8,60.8,100,29.92,10.0,SE,3.5,-,N/A,,Clear,130,2013-05-23 04:35:00
11:55 PM,60.8,60.8,100,29.92,10.0,Calm,Calm,-,N/A,,Clear,0,2013-05-23 04:55:00